Cloud_Cover
92 92 88 92 88 92 92 92 88 88 92 92 92 92 92 92 92 92 92 92 92 92 92 92 92 92 92 92 92 92 88 88 88 88 88 80 76 64 56 56 48 56 56 56 48 44 36 36 36 44 44 44 44 44 36 36 36 32 32 24 24 24 24 20 12 12 12 8 8
92 92 92 92 92 92 92 92 88 88 92 92 92 88 80 80 92 92 92 92 92 92 92 92 92 92 92 92 92 92 88 92 88 88 80 68 64 56 48 48 48 48 48 44 36 36 36 36 44 48 44 44 44 44 36 32 32 32 24 24 24 24 20 12 12 8 8 8 8
92 92 88 88 92 92 92 92 88 80 76 76 80 88 80 88 88 88 92 92 92 92 92 92 92 92 92 92 92 92 92 92 88 80 76 56 48 48 48 56 56 48 36 36 36 36 44 44 48 44 44 44 36 36 36 32 32 24 24 24 24 20 12 12 8 8 8 8 8
92 92 92 92 92 92 92 92 92 88 80 80 80 88 80 76 80 80 88 88 92 92 92 92 92 92 92 92 92 88 88 88 88 80 76 64 56 48 48 48 48 44 44 36 44 48 48 48 48 44 44 36 36 32 32 32 24 24 24 20 20 12 12 8 8 8 8 8 12
92 88 88 92 92 92 88 76 88 88 88 88 88 88 88 88 88 88 88 88 92 92 92 92 92 92 92 88 88 88 88 80 80 80 76 68 56 48 44 44 44 44 44 48 48 48 48 48 44 44 36 36 32 32 32 24 32 32 24 12 12 12 8 8 8 8 8 8 12
88 88 88 92 80 80 80 80 88 92 88 88 88 88 88 88 88 88 88 92 92 92 92 92 92 88 88 88 88 80 80 80 80 76 76 68 48 44 44 44 48 48 48 56 48 48 44 44 44 36 36 32 32 32 32 32 32 24 20 12 12 8 12 12 8 8 8 8 8
88 88 92 92 92 92 92 92 88 88 88 88 88 88 88 88 88 92 92 92 92 92 92 92 88 80 80 76 76 76 76 80 76 76 68 64 56 48 48 56 56 64 64 64 48 44 36 36 36 36 32 32 32 32 32 24 24 20 12 12 12 12 12 12 8 12 12 12 12
88 88 88 88 88 88 88 88 88 88 88 88 88 88 92 92 92 92 92 92 92 88 80 80 80 80 76 76 76 76 76 76 68 68 64 56 48 56 64 64 64 56 56 48 44 44 36 32 32 32 32 32 32 24 24 20 12 12 12 12 12 12 12 20 20 20 20 12 12
76 80 88 88 92 92 92 92 92 92 92 92 92 92 92 92 92 92 92 92 88 80 80 88 80 76 76 76 68 68 68 64 64 64 56 64 64 64 56 56 56 48 48 48 44 36 32 32 32 32 24 24 24 20 12 12 12 12 12 12 12 12 20 32 32 24 20 12 24
64 68 76 80 88 88 88 92 92 92 92 92 92 92 92 92 88 88 80 80 76 76 80 80 76 68 68 64 56 56 56 56 64 64 64 64 56 56 56 48 48 44 44 36 32 32 24 24 24 24 24 24 20 20 12 12 12 12 12 12 12 24 32 32 24 24 20 20 32
80 80 80 80 80 80 80 80 88 88 88 88 88 88 88 88 88 80 76 68 76 76 76 64 64 64 56 48 48 48 48 48 56 56 56 56 56 48 48 44 44 36 36 24 24 24 24 24 24 20 20 20 20 12 12 12 12 12 12 12 12 24 32 20 20 24 24 24 56
76 76 76 76 76 76 80 80 80 80 80 80 80 80 76 76 76 68 64 68 68 64 56 48 48 56 56 48 48 48 48 56 56 56 48 48 48 44 44 36 36 32 24 24 24 24 20 20 20 20 20 12 12 12 12 12 12 8 12 12 20 32 36 20 12 20 36 48 68
68 68 68 64 64 68 68 68 68 68 68 68 64 64 56 56 48 48 56 56 56 48 44 48 48 48 48 48 48 48 48 48 48 48 44 44 36 36 36 32 24 24 20 20 20 20 20 20 20 12 12 12 12 12 12 8 8 12 12 12 32 36 36 32 20 36 64 68 76
68 68 76 76 76 80 76 64 64 64 56 56 48 48 48 44 44 44 48 48 48 44 36 44 44 44 48 48 48 48 48 48 44 36 36 32 32 32 24 24 24 20 20 20 20 20 20 12 12 12 12 12 12 12 12 8 8 12 12 12 36 44 44 32 24 44 76 76 76
64 68 76 80 80 80 80 68 68 64 56 48 48 48 48 44 44 44 44 44 44 36 36 44 44 48 48 48 44 44 44 36 36 32 32 24 24 24 24 20 20 20 20 12 12 12 12 12 12 12 12 12 12 12 20 12 20 20 20 24 36 44 36 32 36 56 76 76 68
68 76 80 80 76 76 76 68 64 56 48 48 44 36 36 36 36 44 48 44 44 44 48 48 48 44 44 36 32 32 32 32 24 24 24 24 20 20 20 12 12 12 12 12 12 12 12 12 12 12 12 8 12 24 32 32 24 24 20 20 32 36 36 44 56 68 76 76 64
68 68 68 68 56 56 48 48 44 44 36 36 36 36 36 44 44 44 48 48 48 48 48 48 44 36 32 24 20 24 24 24 24 20 20 20 20 20 12 12 12 12 12 12 12 12 12 12 12 12 20 24 32 32 32 32 32 24 24 20 24 36 48 64 68 76 76 80 68
56 56 56 48 44 44 36 36 32 32 32 36 36 36 44 44 44 44 44 44 44 44 44 36 32 24 20 20 20 20 20 20 20 20 20 12 12 12 12 12 12 12 12 12 12 12 12 12 8 12 24 44 36 36 36 32 36 44 48 48 48 56 64 68 76 76 80 80 80
44 44 44 44 44 36 36 36 32 32 32 32 32 36 36 36 36 36 36 36 36 32 32 32 24 20 20 20 12 12 12 12 12 12 12 12 12 12 12 12 12 12 20 20 20 24 32 36 36 32 36 36 36 36 36 36 48 56 64 68 68 64 64 68 76 80 80 80 80
36 36 36 36 36 36 32 32 32 32 32 32 36 36 36 36 36 36 32 32 32 24 24 24 24 20 20 20 12 12 12 12 12 12 12 12 12 12 12 12 20 24 24 32 32 44 56 64 56 44 36 32 36 44 44 36 48 56 56 56 56 56 64 76 80 80 76 76 76
32 32 32 32 32 32 32 32 32 32 36 36 36 36 36 36 32 32 32 24 24 24 24 20 20 20 20 20 12 12 12 12 12 12 12 12 12 8 12 20 20 24 32 32 36 44 44 44 36 32 24 32 36 44 44 36 48 56 64 64 64 68 76 76 68 68 76 88 88
24 24 24 24 24 24 24 32 32 32 32 32 32 32 32 32 24 24 24 20 20 20 20 20 20 20 12 12 12 12 12 12 12 12 12 12 8 8 8 12 20 24 24 24 24 24 20 12 24 24 32 36 44 56 64 64 68 68 64 64 64 68 76 88 88 88 88 92 92
20 20 20 20 20 20 20 24 24 24 24 24 24 20 20 20 20 12 12 12 12 12 12 8 8 8 8 8 8 12 12 12 12 8 8 8 8 8 8 12 20 20 20 12 12 12 12 20 24 32 44 56 56 64 68 76 68 64 68 80 88 88 88 92 92 92 92 92 92
20 20 12 12 12 12 12 12 12 12 12 12 12 12 12 12 8 8 8 8 8 8 8 0 0 0 8 8 8 8 8 8 8 8 0 0 8 8 8 20 20 12 12 8 8 12 20 24 20 36 48 64 64 68 76 76 80 88 88 92 92 92 92 92 92 92 92 92 92
20 20 12 12 12 12 12 12 8 8 8 8 0 0 8 8 8 8 8 0 0 0 0 0 0 0 8 8 8 8 8 8 8 8 12 12 12 12 12 12 12 12 8 8 12 20 20 20 20 44 68 64 76 88 92 92 92 92 92 92 92 92 92 92 92 92 92 92 92
20 20 12 12 12 12 12 12 8 8 8 0 0 8 8 8 8 8 8 8 8 0 0 0 0 8 8 8 12 12 12 20 20 24 20 20 12 8 8 12 8 8 8 12 20 20 20 20 56 76 76 68 88 92 92 92 92 92 92 92 92 92 92 92 92 92 92 92 92
20 20 20 20 12 12 12 12 8 8 8 8 8 8 8 8 8 8 8 8 8 8 8 8 12 12 20 36 36 36 32 20 20 20 12 8 8 8 8 8 8 8 8 20 20 24 24 24 64 76 68 68 88 92 92 92 92 92 92 92 92 92 92 92 92 92 92 92 92
20 20 12 12 12 12 12 12 8 8 8 8 8 8 8 8 8 8 8 8 12 32 48 48 48 56 64 64 64 56 44 32 24 20 20 12 12 24 24 20 12 12 20 36 44 64 76 68 68 76 80 92 92 92 92 92 92 92 92 92 92 92 92 92 92 92 92 92 92
12 12 12 12 12 12 8 8 8 8 8 8 8 8 8 8 8 32 64 68 64 56 48 36 32 32 32 32 36 36 36 24 20 20 20 20 12 12 8 8 20 20 36 92 68 64 76 92 92 92 92 92 92 92 92 92 92 92 92 92 92 92 92 92 92 92 92 92 92
8 8 8 8 8 8 8 8 8 8 8 8 8 8 12 24 44 48 44 36 32 32 32 44 44 44 44 36 24 20 20 32 20 12 12 20 20 20 20 24 32 32 24 24 80 92 92 92 92 92 92 92 92 92 92 92 92 92 92 92 92 92 92 92 92 92 92 92 92
8 12 20 12 8 8 8 8 8 8 8 8 12 24 44 36 36 36 36 44 32 24 20 20 20 32 44 44 36 32 24 32 20 12 12 12 12 12 12 20 24 24 36 80 92 92 88 92 88 88 88 92 92 92 92 92 92 92 92 92 92 92 92 92 92 92 92 92 92
80 80 68 68 56 44 24 8 8 8 12 24 56 68 68 64 56 48 44 44 44 32 24 20 20 32 44 56 56 48 36 24 20 12 8 8 12 12 20 20 44 64 80 92 92 88 88 88 88 88 88 80 88 88 88 92 92 92 92 92 92 92 92 92 92 92 92 100 100
80 80 80 88 92 92 88 64 32 32 44 56 56 64 64 56 48 48 56 76 88 76 56 44 32 36 44 64 56 48 36 24 20 12 12 24 56 76 80 88 92 92 92 92 92 92 92 92 88 92 92 92 92 92 92 92 100 100 92 92 92 92 92 92 92 92 92 100 100
88 88 88 88 92 92 92 92 92 88 80 76 68 68 64 64 56 44 36 36 68 76 68 44 44 48 56 56 56 44 36 24 20 24 48 80 92 92 92 92 92 92 92 92 92 92 92 88 92 92 92 100 100 100 100 100 100 100 92 92 92 92 92 92 92 92 92 100 92
56 56 56 56 68 80 92 92 92 92 88 76 68 56 48 44 36 36 48 56 68 88 88 64 68 68 68 64 56 44 32 24 32 64 88 92 92 92 92 92 92 92 92 92 92 92 92 92 92 92 100 100 100 100 100 100 92 92 92 92 92 92 92 92 92 92 92 92 92
48 44 36 36 64 76 80 88 92 88 80 76 68 64 56 48 56 64 76 80 92 92 88 76 68 68 76 68 64 48 36 36 64 76 80 88 92 92 92 92 92 92 92 92 92 92 92 92 92 100 100 100 92 92 92 92 92 92 92 92 92 92 92 92 92 92 92 92 92
48 44 48 56 76 88 88 92 92 88 76 76 80 80 80 80 80 80 80 88 92 92 88 68 76 76 80 88 76 68 68 80 80 80 88 92 92 92 92 92 92 92 92 92 92 92 92 92 92 92 100 100 92 92 92 92 92 92 92 92 92 92 92 92 92 92 92 92 92
48 56 68 92 92 92 92 92 88 88 88 88 92 92 92 92 88 88 88 92 92 92 88 64 76 88 92 92 92 92 92 92 92 92 92 92 92 92 92 92 92 92 92 92 92 92 92 92 92 92 92 92 92 92 92 92 92 92 92 92 92 92 92 92 92 92 92 92 92
92 92 92 92 92 92 92 88 88 88 92 92 92 92 92 92 92 92 92 92 92 92 92 88 88 92 92 92 92 92 100 100 100 100 92 92 92 92 92 92 92 92 92 92 92 92 92 92 92 92 92 92 92 92 92 92 92 92 92 92 92 92 92 92 92 92 92 92 92
92 92 92 92 92 92 92 92 92 92 92 92 92 88 88 80 88 92 92 92 92 92 92 92 92 92 92 92 92 92 92 92 92 92 92 92 92 100 100 100 100 92 92 92 92 92 92 100 100 92 92 92 92 92 92 92 92 92 92 92 92 92 92 92 92 92 92 92 92
92 92 92 92 92 92 92 92 92 92 92 92 88 80 76 76 76 80 88 92 92 92 92 92 92 92 92 92 92 92 92 92 92 92 92 92 92 100 100 100 100 100 100 100 100 92 92 92 92 92 92 92 92 92 92 92 92 92 92 92 92 92 92 92 92 92 92 92 92